User: anonymous   Login
Location: Unspecified
(0.0000°N, 0.0000°E)
Time: 16:21:35
(UTC+00:00)
Language:

S-56A Canister/Altair - Orbit

View from above orbital plane
View from above orbital plane
View from above satellite
View from above satellite

Ground track
Ground track

The orbit data is extracted from the following two-line orbital elements,

1    82U 61004B   18055.14861842 +.00000087 +00000-0 +10766-3 0  9992
2    82 038.8597 084.5191 1174815 329.0350 024.5902 12.25922423704183
Epoch (UTC): 24 February 2018 03:34:00
Eccentricity: 0.1174815
inclination: 38.8597°
perigee height: 633 km
apogee height: 2500 km
right ascension of ascending node: 84.5191°
argument of perigee: 329.0350°
revolutions per day: 12.25922423
mean anomaly at epoch: 24.5902°
orbit number at epoch: 70418

The dashed part of the orbit path shows where the satellite is in the earth's shadow,  

DLR